Hors Challenge

Le Trail De Bruxelles - Auderghem (14.00 km)

dimanche 18 octobre 2020

Vous pouvez trouver Le classement original sur : https://my.raceresult.com
 
LE TRAIL DE BRUXELLES - AUDERGHEM
DISTANCE : 12.00 km
dimanche 18 octobre 2020
 
Place dos NOM Catégorie Pl/cat temps temps/km Vitesse
01:00:00              
1 3238 NICOLAS TILMAN SH 1 0:44:29 03:42 16.19
2 2251 JAN SAENEN V1 1 0:53:18 04:26 13.51
3 1827 CLÉMENT DELEMAZURE SH 2 0:53:55 04:30 13.35
4 2849 RUBEN VANDAMME SH 3 0:54:44 04:34 13.15
5 1965 ELS TALLOEN SD 1 0:55:09 04:36 13.06
6 1671 GRÉGOIRE THUNIS SH 4 0:55:52 04:39 12.89
7 2681 MARTIN DE JAEGER SH 5 0:55:53 04:39 12.88
8 1825 STIJN GYSELINCK SH 6 0:56:22 04:42 12.77
9 3252 DAVID DE KEUKELAERE SH 7 0:56:37 04:43 12.72
10 2581 KOEN DENEF V1 2 0:56:41 04:43 12.70
11 1815 TOM WYBAILLIE V1 3 0:56:41 04:43 12.70
12 7155 GABRIÊL HOQUET JH 1 0:57:12 04:46 12.59
13 7153 MARC BENJAMIN V1 4 0:57:27 04:47 12.53
14 153 ROBIN DE HAUWERE V1 5 0:57:40 04:48 12.49
15 3201 JORIS VERCRUYSSE SH 8 0:58:17 04:51 12.35
16 2362 BERTRAND DEPASSE V1 6 0:58:44 04:54 12.26
17 196 OLIVIER LESSIRE V1 7 0:59:07 04:56 12.18
18 2415 LEEN VANDEN DAELEN SD 2 0:59:20 04:57 12.13
19 2901 ANTOINE VAN EECKHOUT SH 9 0:59:23 04:57 12.12
20 3260 MICHAL SZCZEPURA V1 8 0:59:43 04:59 12.06
21 7143 MAXIME DE RAEYMAEKER SH 10 1:00:03 05:00 11.99
22 3202 LOT STEVENS SD 3 1:00:09 05:01 11.97
23 3262 ROISIN MOSSOP SD 4 1:00:24 05:02 11.92
24 2970 DAVID VAN DER STOCKT V1 9 1:00:27 05:02 11.91
25 2190 VICTOR DE SAEDELEER JH 2 1:00:41 05:03 11.86
26 2074 CHARLES MARTENS SH 11 1:00:42 05:04 11.86
27 1893 NICOLAS FINNÉ SH 12 1:00:45 05:04 11.85
28 3268 SANDER VAN DEN BROECK SH 13 1:01:01 05:05 11.80
29 3134 IVAN DE MEUNYNCK SH 14 1:01:09 05:06 11.77
30 3005 NIKI BOGAERT SD 5 1:01:11 05:06 11.77
31 2020 JOREN CLAUS SH 15 1:01:14 05:06 11.76
32 3240 ALAIN WIJNANTS V2 1 1:01:22 05:07 11.73
33 2846 JÉRÔME MARIQUE SH 16 1:01:27 05:07 11.72
34 2397 THIBAUT JACQUES SH 17 1:01:28 05:07 11.71
35 3141 MICHAEL BEIRINCKX SH 18 1:01:29 05:07 11.71
36 2083 ROCH DE WASSEIGE SH 19 1:01:31 05:08 11.70
37 283 MILAN MESTDAGH JH 3 1:01:36 05:08 11.69
38 2484 KRIS NOTELE V1 10 1:01:52 05:09 11.64
39 3182 ARTHUR LAMY SH 20 1:01:53 05:09 11.63
40 2981 TIM VAN DER VEKENS SH 21 1:01:57 05:10 11.62
41 2848 RAPHAEL HANOTEAUX SH 22 1:01:57 05:10 11.62
42 239 KIM KARLSSON V1 11 1:02:09 05:11 11.58
43 3229 NASTJA KLEMENCIC SCHMIDT A1 1 1:02:21 05:12 11.55
44 3187 VICTOR FISCHER SH 23 1:02:23 05:12 11.54
45 2356 MICHAËL SLABINCK V1 12 1:02:41 05:13 11.49
46 3266 CECILE CANTERO HOUSEZ A1 2 1:03:02 05:15 11.42
47 2117 LOUIS BROUYAUX SH 24 1:03:06 05:16 11.41
48 2757 HENDRIK DE WINNE V1 13 1:03:16 05:16 11.38
49 2254 JURGEN BUYENS V1 14 1:03:23 05:17 11.36
50 2825 KEVIN ROLAND SH 25 1:03:23 05:17 11.36
51 2337 CHARLES-EMMANUEL DEBRAY SH 26 1:03:31 05:18 11.34
52 1700 GIL VAN NIEUWENHOVEN SH 27 1:03:31 05:18 11.34
53 3265 SAMUEL ZWARTJES SH 28 1:03:37 05:18 11.32
54 3149 RACHIDA BELKADI A1 3 1:03:39 05:18 11.31
55 2395 RUBEN VAEREMANS SH 29 1:03:40 05:18 11.31
56 2987 GIJS LEYMAN V1 15 1:03:43 05:19 11.30
57 2095 KEVIN BAERT V1 16 1:03:51 05:19 11.28
58 2102 PIETER SENTS SH 30 1:03:51 05:19 11.28
59 2772 DAVIDE SARDO SH 31 1:03:58 05:20 11.26
60 3099 MICKAEL CLARY SH 32 1:04:02 05:20 11.24
61 3125 ARNAUD BOISSON V1 17 1:04:07 05:21 11.23
62 2469 ROEL HENDRYCKX SH 33 1:04:09 05:21 11.22
63 2212 MARK VANCAUTEREN V2 2 1:04:11 05:21 11.22
64 2080 SÖREN DECRAENE SH 34 1:04:23 05:22 11.18
65 2652 QUENTIN TAYMANS SH 35 1:04:29 05:22 11.17
66 7150 PHILIPPE SEYNAEVE SH 36 1:04:30 05:23 11.16
67 2259 TINE WETSELS SD 6 1:04:35 05:23 11.15
68 218 KEVIN VERDONCK SH 37 1:04:37 05:23 11.14
69 2980 FREDERIK VAN ACKER SH 38 1:04:39 05:23 11.14
70 2085 JASPER SIJENS SH 39 1:04:42 05:24 11.13
71 1574 MONA MCCANN SD 7 1:04:53 05:24 11.10
72 3174 PASCAL HEYVAERT V2 3 1:05:00 05:25 11.08
73 2501 YVES VANVLASSELAER V1 18 1:05:07 05:26 11.06
74 3212 CARSTEN VENNEMANN V1 19 1:05:18 05:27 11.03
75 285 STEVEN MESTDAGH V1 20 1:05:18 05:27 11.03
76 2134 MAXIME LITTRÉ SH 40 1:05:41 05:28 10.96
77 1546 LUCAS DESMAREZ SH 41 1:05:46 05:29 10.95
78 2468 MARLIES DE NUL SD 8 1:05:49 05:29 10.94
79 2781 SOLÈNE AVRILLAUD SD 9 1:05:51 05:29 10.93
80 3205 AURELIE BASTIJNS SD 10 1:05:56 05:30 10.92
81 2094 JAN SENTS SH 42 1:06:00 05:30 10.91
82 3010 CEDRIC EVERAERTS SH 43 1:06:01 05:30 10.91
83 2457 NELE GEEROMS A1 4 1:06:02 05:30 10.90
84 2771 OLIVIER CAUFRIEZ SH 44 1:06:17 05:31 10.86
85 1891 YVES VANDERSTRAETEN V1 21 1:06:17 05:31 10.86
86 3267 YVES HELLEMANS SH 45 1:06:28 05:32 10.83
87 3035 KARIM EL BACHIRI SH 46 1:06:28 05:32 10.83
88 3196 GASPARD ANSOTTE JH 4 1:06:56 05:35 10.76
89 2682 GIULIA ROMANIN SD 11 1:07:09 05:36 10.72
90 2216 CONSTANTIN DE LHONEUX SH 47 1:07:14 05:36 10.71
91 7138 THOMAS BUELENS SH 48 1:07:15 05:36 10.71
92 2754 GEERT HALS V1 22 1:07:17 05:36 10.70
93 2879 CEDRIC DEWEVER SH 49 1:07:20 05:37 10.69
94 2410 GUIDO CREEMERS SH 50 1:07:25 05:37 10.68
95 2711 GREGORY RODESCH V1 23 1:07:27 05:37 10.67
96 217 ANNELEEN GOFFIN SD 12 1:07:30 05:37 10.67
97 2885 NICOLAS GERBOLLET SH 51 1:07:34 05:38 10.66
98 1804 FANNY DRUART SD 13 1:07:36 05:38 10.65
99 1937 ANNELORE VAN DE KERCKHOVE SD 14 1:07:41 05:38 10.64
100 276 KURT CUVELIERS V2 4 1:07:42 05:39 10.64
101 2192 TOM VAN RIET SH 52 1:07:43 05:39 10.63
102 2542 MELANIE MEEUSEN SD 15 1:07:58 05:40 10.59
103 3241 DOVILE RUCYTE A1 5 1:07:59 05:40 10.59
104 2814 NELE DE GEYTER SD 16 1:08:00 05:40 10.59
105 2359 BART VAN BELLEGHEM V1 24 1:08:01 05:40 10.59
106 2396 NOAH OSTYN SH 53 1:08:05 05:40 10.58
107 2391 CÉDRIC JACQUES SH 54 1:08:05 05:40 10.58
108 2744 EVA CARBALLEIRA A1 6 1:08:11 05:41 10.56
109 3083 BART VAN NESTE V2 5 1:08:23 05:42 10.53
110 2401 JENNIFER GUYOT SD 17 1:08:25 05:42 10.52
111 1923 KEVIN NYS SH 55 1:08:25 05:42 10.52
112 1532 CHLOÉ PRIMAULT SD 18 1:08:30 05:42 10.51
113 7128 MAYBRITT KIEL SD 19 1:08:35 05:43 10.50
114 1531 ADÈLE JACQ SD 20 1:08:41 05:43 10.48
115 2499 BRAM GOELEVEN SH 56 1:08:41 05:43 10.48
116 2736 PHILIPPE HAUBERT V1 25 1:08:45 05:44 10.47
117 3164 YVES PAULUS V1 26 1:08:53 05:44 10.45
118 241 RENE EGGERS V3 1 1:09:05 05:45 10.42
119 2087 TANGUY CAMBIER SH 57 1:09:10 05:46 10.41
120 2820 ISABELLE DI BARI A1 7 1:09:12 05:46 10.40
121 3206 CHRISTOPHE PROULT V1 27 1:09:25 05:47 10.37
122 3261 RUUD BOUWHUIS SH 58 1:09:27 05:47 10.37
123 2867 NESLE VERHELST A1 8 1:09:30 05:47 10.36
124 3183 SÉBASTIEN DELOOZ SH 59 1:09:42 05:48 10.33
125 3139 WIM SWINNEN SH 60 1:09:50 05:49 10.31
126 3137 JORAN CORMOND SH 61 1:09:52 05:49 10.31
127 1778 JEROEN DEKKER SH 62 1:09:54 05:49 10.30
128 2996 AXEL GEYSELS SH 63 1:10:05 05:50 10.27
129 2361 STIJN VAN ISTERDAEL SH 64 1:10:07 05:51 10.27
130 2360 THOMAS VAN ISTERDAEL SH 65 1:10:08 05:51 10.27
131 2047 CHRISTOPHE MEUNIER V1 28 1:10:18 05:51 10.24
132 3158 ASTRID HUYGENS A1 9 1:10:26 05:52 10.22
133 3177 ISABELLE VAN SCHEL A1 10 1:10:27 05:52 10.22
134 2492 SOPHIE DONADI SD 21 1:10:28 05:52 10.22
135 2491 THOMAS VAN HAELE SH 66 1:10:29 05:52 10.22
136 2644 MATHIAS PLISNIER SH 67 1:10:40 05:53 10.19
137 1593 DIMITRI DUBOIS SH 68 1:11:03 05:55 10.13
138 1899 PAULINE BLANQUET SD 22 1:11:03 05:55 10.13
139 1900 VIRGINIE MOREAU SD 23 1:11:08 05:56 10.12
140 2116 MICHIEL DRENTH SH 69 1:11:36 05:58 10.06
141 2084 ARNAUD ROOBAERT SH 70 1:11:37 05:58 10.05
142 7152 JULIEN BOISDEQUIN SH 71 1:11:41 05:58 10.04
143 3155 HILDE DE CRAEN A1 11 1:11:47 05:59 10.03
144 3156 CATHELINE LERAT A1 12 1:11:47 05:59 10.03
145 3100 SULLIVAN LOUVIEAUX SH 72 1:11:51 05:59 10.02
146 1543 HILDE METDENANCXT SD 24 1:11:52 05:59 10.02
147 2031 SOPHIE CROISET SD 25 1:11:52 05:59 10.02
148 2375 CLÉMENCE DE WOUTERS SD 26 1:11:54 06:00 10.01
149 1854 FEDERICO DE VITA SH 73 1:12:12 06:01 9.97
150 2177 TIM ROOSEN V1 29 1:12:22 06:02 9.95
151 2532 ALEXANDRE DUCHEMIN SH 74 1:12:23 06:02 9.95
152 7133 JONATHAN MEURRENS SH 75 1:12:25 06:02 9.94
153 1699 GERRY HEYRMAN SH 76 1:12:32 06:03 9.93
154 2333 QUENTIN DE CLERCQ SH 77 1:12:37 06:03 9.92
155 2237 DRIES VAN DER VELDEN SH 78 1:12:37 06:03 9.92
156 1840 JAN VLASSELAERS SH 79 1:12:37 06:03 9.92
157 1563 HERMAN VAN VRACEM V3 2 1:12:40 06:03 9.91
158 240 CHRISTOPH COENEN SH 80 1:12:41 06:03 9.91
159 7126 ROEL PELLAERS V1 30 1:12:48 06:04 9.89
160 1707 CHLOÉ JOLY SD 27 1:12:57 06:05 9.87
161 2392 ANDREAS VAN DROOGENBROECK SH 81 1:13:00 06:05 9.86
162 2138 JEROEN ADAM SH 82 1:13:06 06:05 9.85
163 2417 EVELYNE DELMEE SD 28 1:13:15 06:06 9.83
164 3037 ELS BUYL SD 29 1:13:19 06:07 9.82
165 3217 ERIC HAULOT V1 31 01:13:20 06:07 9.82
166 1931 RUTGER DUJARDIN SH 83 01:13:21 06:07 9.82
167 3169 JÉRÔME MINOT SH 84 01:13:24 06:07 9.81
168 1870 KRISTEL VERHEYEN A1 13 01:13:26 06:07 9.80
169 1932 JEREMY LISSENS SH 85 01:13:31 06:08 9.79
170 2497 HARALD ROGIERS V1 32 01:13:35 06:08 9.78
171 2496 GERRIT VANDEN WAEYENBERGH V1 33 01:13:35 06:08 9.78
172 1992 EELKO STEENHUIS SH 86 01:13:43 06:09 9.77
173 2204 ERNEST OFFEI SH 87 01:13:44 06:09 9.76
174 145 MAARTEN TRESIGNIE V1 34 01:13:47 06:09 9.76
175 143 NELE BUGGENHOUT A1 14 01:13:47 06:09 9.76
176 1591 SAM WINDEY SH 88 01:13:53 06:09 9.75
177 1924 YANNICK JAUBIN SH 89 01:13:54 06:09 9.74
178 7145 JONAS DUMONT SH 90 01:14:01 06:10 9.73
179 2201 ELKE BLEYENBERGH A1 15 01:14:04 06:10 9.72
180 1559 LUDOVIC DE COCK SH 91 01:14:09 06:11 9.71
181 1558 LAURA HEYMANS SD 30 01:14:09 06:11 9.71
182 3193 LAURENT VANDERMOTTEN V1 35 01:14:10 06:11 9.71
183 2560 SIMON BONDROIT SH 92 01:14:31 06:13 9.66
184 2624 HANS TERSAGO SH 93 01:14:50 06:14 9.62
185 3008 INTI HUBLET SH 94 01:14:53 06:14 9.61
186 1926 FILIP VERTOMMEN SH 95 01:14:53 06:14 9.61
187 2866 ROEL WAUTERS SH 96 01:14:54 06:14 9.61
188 3016 CÉDRIC CAUCHIES SH 97 01:14:54 06:14 9.61
189 2373 VINCENT DE CLOET SH 98 01:14:58 06:15 9.60
190 1995 VINCENT DE BOECK SH 99 01:14:59 06:15 9.60
191 2635 SENNE VAN HERBRUGGEN SH 100 01:15:00 06:15 9.60
192 2154 FRANCOIS MASTROIANNI SH 101 01:15:02 06:15 9.60
193 2816 CÉLINE STILMANT SD 31 01:15:06 06:15 9.59
194 2488 VERONIQUE DECROOCK SD 32 01:15:07 06:16 9.59
195 2398 PETER ROELS V2 6 01:15:09 06:16 9.58
196 2633 BART VANSTAEN SH 102 01:15:10 06:16 9.58
197 3208 SVEN DE VARÉ V1 36 01:15:13 06:16 9.57
198 2059 INES MICHIELS SD 33 01:15:20 06:17 9.56
199 2845 OSKAR SOETENS SH 103 01:15:23 06:17 9.55
200 3277 KARIN DELEU SD 34 01:15:46 06:19 9.50
201 3070 BENEDICTE AGNEESSENS SD 35 01:15:48 06:19 9.50
202 2157 MAARTEN RABAEY V1 37 01:15:57 06:20 9.48
203 3278 SAMUEL ROELANTS V1 38 01:16:00 06:20 9.47
204 2734 GERT SAINT GHISLAIN V2 7 01:16:05 06:20 9.46
205 2730 MIEKE TRUYENS A2 1 01:16:06 06:20 9.46
206 2733 ILSE BOSMANS A1 16 01:16:06 06:20 9.46
207 2737 CONNIE VAN DEN BERGH A2 2 01:16:06 06:20 9.46
208 2729 DIRK VAN DIJCK V2 8 01:16:06 06:20 9.46
209 2619 ISABEL DERYCKE A1 17 01:16:24 06:22 9.42
210 3001 DIMITRIOS PETALIOS SH 104 01:16:35 06:23 9.40
211 2431 DRIES HEUNINCKX SH 105 01:16:36 06:23 9.40
212 2676 ESTELLE HASTIÈRE SD 36 01:16:45 06:24 9.38
213 2963 KAATJE RUMMENS A1 18 01:16:50 06:24 9.37
214 2977 VERONIQUE VANDERHULST SD 37 01:16:53 06:24 9.36
215 1779 LIESANN CORNELISSEN SD 38 01:16:58 06:25 9.35
216 1761 JONATHAN DUTILLIEUX SH 106 01:17:00 06:25 9.35
217 3170 VERONIQUE HENNART A1 19 01:17:01 06:25 9.35
218 265 BIE SCHOOLMEESTERS A2 3 01:17:02 06:25 9.35
219 266 NATHALIE WINAND A2 4 01:17:03 06:25 9.34
220 7156 OMBELINE PERRIN SD 39 01:17:07 06:26 9.34
221 1706 NICO THIELEMANS SH 107 01:17:07 06:26 9.34
222 1947 KENNY KERCKX SH 108 01:17:12 06:26 9.33
223 1859 ADÉLAÏDE CHARLIER SD 40 01:17:13 06:26 9.32
224 3251 XAVIER HELLEBOSCH SH 109 01:17:13 06:26 9.32
225 3255 SVEN NEIRINCKX SH 110 01:17:13 06:26 9.32
226 3213 XXX A1 20 01:17:14 06:26 9.32
227 3256 DIMITRI LONA V1 39 01:17:15 06:26 9.32
228 3214 CECILE BILLAUX A1 21 01:17:15 06:26 9.32
229 3186 LUC TREHAN V3 3 01:17:15 06:26 9.32
230 3002 GIACOMO ORSINI SH 111 01:17:25 06:27 9.30
231 1769 TOM DELODDER SH 112 01:17:28 06:27 9.29
232 1869 NICO BIJNENS V1 40 01:17:33 06:28 9.28
233 1764 RONALD BAULARD SH 113 01:17:33 06:28 9.28
234 2218 MAROUSSIA DE STREEL SD 41 01:17:33 06:28 9.28
235 7139 JAMES D'OULTREMONT SH 114 01:17:33 06:28 9.28
236 1683 CHRIS VAN HOOF V2 9 01:17:36 06:28 9.28
237 1640 FLORIAN HERMANS SH 115 01:17:49 06:29 9.25
238 1971 HANNE OTTO SD 42 01:17:51 06:29 9.25
239 2512 GOEDELE VAN PUYMBROECK SD 43 01:17:53 06:29 9.24
240 2172 VALERIE TOLLET A1 22 01:17:54 06:29 9.24
241 2323 JULIET MARTINEZ A1 23 01:17:54 06:29 9.24
242 2881 SYLVIE TILLIEUX SD 44 01:17:57 06:30 9.24
243 2060 LAURENT VERVAECKE V2 10 01:17:58 06:30 9.23
244 2612 KATRIEN VANDERMEULEN SD 45 01:18:01 06:30 9.23
245 2679 VANESSA VANDERPLAETSE A1 24 01:18:04 06:30 9.22
246 255 DENIZ POYRAZ LAUWERS SD 46 01:18:04 06:30 9.22
247 2297 DRIES WARLOP SH 116 01:18:07 06:31 9.22
248 3165 KENZO LONBOIS JH 5 01:18:07 06:31 9.22
249 2125 MICH STRUYF SD 47 01:18:08 06:31 9.22
250 3146 ISABEL JANSSEN SD 48 01:18:09 06:31 9.21
251 1776 SARAH PEUSENS SD 49 01:18:11 06:31 9.21
252 1542 VEERLE VAN WINGHE A1 25 01:18:12 06:31 9.21
253 2296 EMIEL DELVA SH 117 01:18:13 06:31 9.21
254 2093 MONIA MRABET SD 50 01:18:17 06:31 9.20
255 2101 DELPHINE FOLENS SD 51 01:18:22 06:32 9.19
256 2142 JULIETTE DESCAMPE SD 52 01:18:26 06:32 9.18
257 1858 HÉLOÏSE CHARLIER SD 53 01:18:36 06:33 9.16
258 2649 MARGOT ALEIX MATA SD 54 01:18:36 06:33 9.16
259 7146 WESLEY DE BRANDT SH 118 01:18:44 06:34 9.14
260 7147 SARAH DEBRAEKELEER SD 55 01:18:44 06:34 9.14
261 7141 MARC HAGELSTEENS V1 41 01:18:45 06:34 9.14
262 3269 JUDITH VAN DEN BORNE SD 56 01:18:53 06:34 9.13
263 2215 GILLES COELAERT V1 42 01:18:55 06:35 9.12
264 2896 AURIANE BOMBEECK SD 57 01:19:03 06:35 9.11
265 2895 YSALINE BOMBEECK SD 58 01:19:03 06:35 9.11
266 1722 DRIES STAELENS SH 119 01:19:04 06:35 9.11
267 1721 ANNELIES BEERLANDT SD 59 01:19:04 06:35 9.11
268 3129 WOUTER PIETERS SH 120 01:19:15 06:36 9.09
269 3130 ELINE FIEU SD 60 01:19:15 06:36 9.09
270 1944 JO WILLE V2 11 01:19:39 06:38 9.04
271 1713 ANNELEEN ROELS A1 26 01:19:39 06:38 9.04
272 2326 ALBANE CHABOUREAU SD 61 01:19:42 06:38 9.03
273 1670 CHARLÈNE REICHEL SD 62 01:19:47 06:39 9.02
274 1800 CAMILLE ROULLET SD 63 01:19:47 06:39 9.02
275 1841 MICHELE BELFORTE SH 121 01:19:58 06:40 9.00
276 7140 BRETT TROUCHEAU SH 122 01:20:02 06:40 9.00
277 2286 MORGANE LION SD 64 01:20:06 06:41 8.99
278 1896 DENNIS DE SUTTER V1 43 01:20:08 06:41 8.99
279 259 VEERLE STERCKX SD 65 01:20:18 06:42 8.97
280 3192 NADEGE GEUENS SD 66 01:20:21 06:42 8.96
281 1824 EUGÉNIE VANDERVEKEN SD 67 01:20:22 06:42 8.96
282 129 JESSA BEKKER SD 68 01:20:22 06:42 8.96
283 2128 ANTOINE DASCOTTE SH 123 01:20:30 06:43 8.94
284 2197 BERTRAND DEJARDIN SH 124 01:20:31 06:43 8.94
285 2467 GRIET DE KEGEL A2 5 01:20:32 06:43 8.94
286 2637 INA DESCHOUWER A1 27 01:20:32 06:43 8.94
287 2242 AUDREY VANDERGHINSTE SD 69 01:20:39 06:43 8.93
288 2224 ASTRID VRYGHEM SD 70 01:20:39 06:43 8.93
289 3198 GILLES BINDELS V1 44 01:20:43 06:44 8.92
290 3197 NICOLAS ANSOTTE V1 45 01:20:44 06:44 8.92
291 7136 LIEN VERKOYEN SD 71 01:20:48 06:44 8.91
292 3110 DÉBORAH GILLARD SD 72 01:21:00 06:45 8.89
293 2983 ASTRID DE RIDDER SD 73 01:21:03 06:45 8.88
294 3215 LAURENT OLISLAGER SH 125 01:21:18 06:46 8.86
295 3216 LISA HALLER SD 74 01:21:19 06:47 8.85
296 2641 OLIVIER HENRICOT SH 126 01:21:23 06:47 8.85
297 1857 CLAUDIA BERGHOLZ SD 75 01:21:33 06:48 8.83
298 7132 VEERLE PYPE SD 76 01:21:37 06:48 8.82
299 1598 EVA DUINSLAEGER SD 77 01:21:37 06:48 8.82
300 1895 KENNY VAN DER AUWERA SH 127 01:21:37 06:48 8.82
301 1894 SABINE ANGELINE A1 28 01:21:38 06:48 8.82
302 1596 TESS DUINSLAEGER SD 78 01:21:39 06:48 8.82
303 1597 THOMAS VAN DE VELDE SH 128 01:21:39 06:48 8.82
304 2860 FRANCOIS DE JAEGERE V1 46 01:21:43 06:49 8.81
305 2490 PIERRE WILLEMS SH 129 01:21:44 06:49 8.81
306 2489 CÉLINE LOMMAERT SD 79 01:21:45 06:49 8.81
307 2873 STEFAAN VERSCHAEVE V2 12 01:21:52 06:49 8.79
308 2872 MATHILDE VERSCHAEVE SD 80 01:21:53 06:49 8.79
309 2039 JENEVA PATTERSON A2 6 01:21:55 06:50 8.79
310 1968 LUIS PORTERO V1 47 01:21:55 06:50 8.79
311 2758 ÉMILIE COLLE SD 81 01:21:55 06:50 8.79
312 2316 ALICE VAN AUDENHAEGE SD 82 01:21:56 06:50 8.79
313 2317 GERALDINE DEBUYSSCHER SD 83 01:21:59 06:50 8.78
314 2121 YVON VERKOYEN V3 4 01:22:03 06:50 8.78
315 2189 VIRGINIE VAN RIET A1 29 01:22:08 06:51 8.77
316 3133 RODOLPHE DE FRAHAN V2 13 01:22:09 06:51 8.76
317 2706 PIERRE DUFOUR SH 130 01:22:12 06:51 8.76
318 2922 LAURIE LANCKMANS SD 84 01:22:15 06:51 8.75
319 2421 GENEVIÈVE FÉLIX A1 30 01:22:32 06:53 8.72
320 2420 SÉBASTIEN STRADE V1 48 01:22:32 06:53 8.72
321 2608 MAARTEN CAPPOEN SH 131 01:22:33 06:53 8.72
322 3246 MARIO SPITALERI V3 5 01:22:34 06:53 8.72
323 2707 PHILIPPE DUFOUR V2 14 01:22:35 06:53 8.72
324 2605 ANN HEREMANS SD 85 01:22:37 06:53 8.71
325 3132 CHRISTOPHE NOLF V2 15 01:22:38 06:53 8.71
326 7159 PAULINE JENNÉ SD 86 01:22:42 06:54 8.71
327 36 JOLIEN VAN GOOL SD 87 01:22:48 06:54 8.70
328 2694 LISELOT VERSCHUEREN SD 88 01:22:50 06:54 8.69
329 2693 LISANNE MERCKX SD 89 01:22:50 06:54 8.69
330 2692 MICAELLE MERCKX SD 90 01:22:50 06:54 8.69
331 7148 ADÈLE ALSBERGE SD 91 01:22:50 06:54 8.69
332 25 PHILIPPE LEVY V2 16 01:23:01 06:55 8.67
333 2370 MIREILLE DE WITTE A1 31 01:23:20 06:57 8.64
334 2756 JULIE LOWEY-BALL SD 92 01:23:39 06:58 8.61
335 2965 ANNIEK SCHOOFS A2 7 01:23:40 06:58 8.61
336 1927 CHARLOTTE KEULEN SD 93 01:23:40 06:58 8.61
337 2000 LISA PIETERS SD 94 01:23:51 06:59 8.59
338 3259 JEAN-FRANÇOIS GOFFIN V2 17 01:23:52 06:59 8.59
339 1994 RENÉE VERMEIRE SD 95 01:23:52 06:59 8.59
340 1922 NAND MORREN SH 132 01:23:53 06:59 8.58
341 2342 JULIETTE DE LA BROUSSE SD 96 01:23:54 07:00 8.58
342 1921 MANU WILMS SH 133 01:23:55 07:00 8.58
343 3237 SARAH RICOUR SD 97 01:23:58 07:00 8.57
344 2750 LAURA COGELS SD 98 01:23:58 07:00 8.57
345 1555 ISABELLE NECHELPUT A1 32 01:24:21 07:02 8.54
346 3231 ERIC HERION V1 49 01:24:23 07:02 8.53
347 2859 MATHIS VERLEYEN JH 6 01:24:23 07:02 8.53
348 2858 KOEN VERLEYEN V1 50 01:24:24 07:02 8.53
349 2358 AMÉLIE BOURRUS SD 99 01:24:26 07:02 8.53
350 2357 ELOI FERRY SH 134 01:24:29 07:02 8.52
351 7161 PETER DE LILLE V1 51 01:24:40 07:03 8.50
352 2399 NADIA VANDENBRANDE A1 33 01:24:41 07:03 8.50
353 1719 JACOB VAN HERTERIJCK JH 7 01:24:50 07:04 8.49
354 2033 ESTELLE BROUTARD SD 100 01:25:00 07:05 8.47
355 2146 ARNO DEREU SH 135 01:25:00 07:05 8.47
356 2982 VANESSA VAN DE BREMPT SD 101 01:25:07 07:06 8.46
357 2452 MATUS MINARIK V1 52 01:25:11 07:06 8.45
358 2424 MICHAL PESTA V1 53 01:25:11 07:06 8.45
359 3270 ALEXANDER BAUWENS SH 136 01:25:13 07:06 8.45
360 3138 NEAL DE CUYPER SH 137 01:25:13 07:06 8.45
361 2463 SHAWNY VAN MECHELEN SD 102 01:25:16 07:06 8.44
362 3003 TOM VEROEVEREN V2 18 01:25:17 07:06 8.44
363 3004 SOFIE BONTINCK A2 8 01:25:19 07:07 8.44
364 1720 PEPIJN VAN HERTERIJCK JH 8 01:25:28 07:07 8.42
365 1746 ANOUK COPPIETERS JF 1 01:25:29 07:07 8.42
366 2788 JOAN VAN CANEGEM SH 138 01:25:35 07:08 8.41
367 2019 JOHAN VANOSMAEL SH 139 01:25:39 07:08 8.41
368 3086 MARIE DELCOURT SH 140 01:25:41 07:08 8.40
369 3088 MARIE DELCOURT SD 103 01:25:41 07:08 8.40
370 3087 KENYA PIGNERET SD 104 01:25:41 07:08 8.40
371 2575 ERIC VALLEE V2 19 01:25:54 07:09 8.38
372 2459 CHARLOTTE MOREAU SD 105 01:25:56 07:10 8.38
373 3047 RUBEN DE BRUYCKER SH 141 01:26:05 07:10 8.36
374 2910 ILSE PICAVET SD 106 01:26:07 07:11 8.36
375 2089 FRANKLIN KINGET V2 20 01:26:12 07:11 8.35
376 2088 NICKY HAEZEBAERT A2 9 01:26:13 07:11 8.35
377 3257 MASARU TASHIRO V2 21 01:26:19 07:12 8.34
378 1672 CLÉMENT KASTELIK SH 142 01:26:27 07:12 8.33
379 2169 VLADIMIR THUNIS SH 143 01:26:40 07:13 8.31
380 1799 CHARLOTTE LESAUNIER SD 107 01:26:44 07:14 8.30
381 1624 JOSE MARIA GARCIA DURO SH 144 01:26:45 07:14 8.30
382 2507 EMMA MARIS SD 108 01:26:47 07:14 8.30
383 1578 BART DE HOON V2 22 01:26:50 07:14 8.29
384 122 ANN MARCELLE A1 34 01:27:05 07:15 8.27
385 1569 ALAIN MISSA V3 6 01:27:08 07:16 8.26
386 2943 ERIK GYSEN V2 23 01:27:08 07:16 8.26
387 1618 CHRISTOPHE JANS V1 54 01:27:12 07:16 8.26
388 1576 YVES VAN DER FRAENEN V4 1 01:27:12 07:16 8.26
389 1731 GÉRALDINE GOFFAUX SD 109 01:27:15 07:16 8.25
390 1732 ANA DENIS SD 110 01:27:15 07:16 8.25
391 3163 EVELINE VAN RAES SD 111 01:27:15 07:16 8.25
392 3171 LOUKA JACOPS SD 112 01:27:16 07:16 8.25
393 2419 CATHERINE NEURET A1 35 01:27:17 07:16 8.25
394 2670 LOUISE BELLINCK SD 113 01:27:22 07:17 8.24
395 2900 AMÉLIE LELANGUE SD 114 01:27:34 07:18 8.22
396 2495 JONATHAN SURINX SH 145 01:27:37 07:18 8.22
397 287 INGRID VAN VLASSELAER A2 10 01:27:40 07:18 8.21
398 1915 NAOMI VERMOESEN JF 2 01:27:42 07:18 8.21
399 1916 VICKY DE NIL A1 36 01:27:43 07:19 8.21
400 1914 STEVEN VERMOESEN SH 146 01:27:43 07:19 8.21
401 1652 AMÉLIE MATHIEU SD 115 01:27:53 07:19 8.19
402 2494 JEAN-MARIE SURINX V2 24 01:27:54 07:19 8.19
403 2236 GITTE VAN HANDENHOVE SD 116 01:28:00 07:20 8.18
404 3113 CYRILLE CARTIER SH 147 01:28:00 07:20 8.18
405 2991 THMS PRLT SH 148 01:28:07 07:21 8.17
406 2016 CHARLIEN BLANCKE SD 117 01:28:10 07:21 8.17
407 2027 JURGEN RYCKAERT V2 25 01:28:21 07:22 8.15
408 277 PEGGY BOOTEN A1 37 01:28:22 07:22 8.15
409 2321 BART PUT V1 55 01:28:30 07:23 8.14
410 2547 TANIA HANS SD 118 01:28:30 07:23 8.14
411 2990 MARC ROISIN V1 56 01:28:31 07:23 8.13
412 1963 CINDY LIMBOURG A1 38 01:28:33 07:23 8.13
413 2159 ELS CLAEYS A1 39 01:28:36 07:23 8.13
414 2158 CINDY DE MOOTER SD 119 01:28:36 07:23 8.13
415 2161 MARIJKE DE ROOCK SD 120 01:28:37 07:23 8.12
416 2270 STEVEN SMEULDERS V1 57 01:29:05 07:25 8.08
417 3011 KURT JACOBS V1 58 01:29:05 07:25 8.08
418 2271 EVI DE VOECHT SD 121 01:29:06 07:25 8.08
419 1945 CINDY VAN MULDERS A1 40 01:29:10 07:26 8.07
420 2386 JORGE TRAMALLINO MACDONALD V1 59 01:29:25 07:27 8.05
421 2385 FRANCESCO PULEO V1 60 01:29:25 07:27 8.05
422 1938 SANDRA VAN HAMME A1 41 01:29:30 07:28 8.04
423 1942 MAGGIE BRABANTS A2 11 01:29:42 07:29 8.03
424 3219 QUENTIN BULINCKX SH 149 01:30:02 07:30 8.00
425 3218 EMILIE LASTELLE SD 122 01:30:02 07:30 8.00
426 2129 GUILLAUME RIGAUX SH 150 01:30:16 07:31 7.98
427 2319 CHARLINE DEMAIN SD 123 01:30:24 07:32 7.96
428 1686 JOSEPHINE DE GRADY SD 124 01:30:25 07:32 7.96
429 2815 MARIE DE GEYTER SD 125 01:30:28 07:32 7.96
430 3194 SABINE JACQUES A2 12 01:30:34 07:33 7.95
431 1711 JAN CLAEREBOUDT V2 26 01:30:36 07:33 7.95
432 3128 HILDE VANDERVELPEN A2 13 01:30:38 07:33 7.94
433 3127 DIRK KAMOEN V2 27 01:30:40 07:33 7.94
434 3009 GILLES MÉZIERRE SH 151 01:30:47 07:34 7.93
435 1695 ILSE VROMAN SD 126 01:30:48 07:34 7.93
436 1562 MARTINE GEVAERT A2 14 01:30:55 07:35 7.92
437 1540 CAROLINE SCHOLTES A1 42 01:31:10 07:36 7.90
438 1541 AXELLE RONSSE A1 43 01:31:10 07:36 7.90
439 2046 SÉBASTIEN DEBROUX V1 61 01:31:20 07:37 7.88
440 2045 RAPHAËL DEBROUX JH 9 01:31:21 07:37 7.88
441 2048 PIERRE CNOP V1 62 01:31:21 07:37 7.88
442 1864 ANNICK BOSMAN A1 44 01:31:38 07:38 7.86
443 3220 PAULINE MICHIELS SD 127 01:31:46 07:39 7.85
444 2556 PALOMA MALLORQUIN A1 45 01:31:47 07:39 7.84
445 2948 JOELLE JAQUET A1 46 01:31:59 07:40 7.83
446 2979 TATIANA WILLOCKX SD 128 01:32:15 07:41 7.80
447 2225 JORIS VERSTRAETEN SH 152 01:32:25 07:42 7.79
448 1793 VANESSA ROMANUS A1 47 01:32:38 07:43 7.77
449 3021 MARIANNE BRUGGEMAN A2 15 01:32:44 07:44 7.76
450 3012 ILSE MARTENS A2 16 01:32:45 07:44 7.76
451 1564 NELE VROMAN SD 129 01:33:08 07:46 7.73
452 1935 INEZ PUTTEMANS SD 130 01:33:24 07:47 7.71
453 1802 CHRIS VANDERVINNE V1 63 01:33:31 07:48 7.70
454 1627 DOMINIQUE VAN GARSSE A1 48 01:33:35 07:48 7.69
455 1619 MAXIME TROULIER V1 64 01:33:48 07:49 7.68
456 2178 BART FRANSEN V1 65 01:34:10 07:51 7.65
457 2082 JULIE TRAMONTE SD 131 01:34:39 07:53 7.61
458 2051 LEEN VAN DE WEGE A1 49 01:35:01 07:55 7.58
459 2052 HELENE GHEYSENS SD 132 01:35:01 07:55 7.58
460 3224 MONICA STILMAN LEDOUX SD 133 01:35:13 07:56 7.56
461 2455 ANA TOMASEK SD 134 01:36:06 08:00 7.49
462 3143 XAVIER VANDEPOL V2 28 01:36:07 08:01 7.49
463 2456 ELLEN HOFBAUER SD 135 01:36:08 08:01 7.49
464 3144 ISABELLE GAUDISAUBOIS A1 50 01:36:08 08:01 7.49
465 2332 JEANNE-MARIE BERGHMANS SD 136 01:36:11 08:01 7.49
466 3200 CHRISTINE LEGRAIN A1 51 01:37:51 08:09 7.36
467 1684 LOUISON DESCAMPE SD 137 01:37:52 08:09 7.36
468 2308 ALAIN PIROTTE V2 29 01:38:05 08:10 7.34
469 1679 JOHN DE WASSEIGE SH 153 01:38:29 08:12 7.31
470 1590 RENATA DE MUER A3 1 01:39:17 08:16 7.25
471 2035 KIM PAUWELS SD 138 01:40:17 08:21 7.18
472 3199 SABRINA DE VILLE A1 52 01:40:34 08:23 7.16
473 2072 MARIANNE NAGY A2 17 01:40:51 08:24 7.14
474 273 JESSICA DAMS SD 139 01:41:19 08:27 7.11
475 1936 INE TIMMERMANS SD 140 01:42:09 08:31 7.05
476 2222 ANNE-MARIE MEEUS A2 18 01:42:18 08:31 7.04
477 2219 VINCIANE MEEUS A2 19 01:42:22 08:32 7.03
478 3091 THIERRY MARECHAL V1 66 01:42:46 08:34 7.01
479 3226 GUILHEM JAMIN SH 154 01:42:57 08:35 6.99
480 3228 ELODIE CAVRENNE SD 141 01:42:59 08:35 6.99
481 3222 JOELLE VANDIJCK A2 20 01:44:02 08:40 6.92
482 3225 VALÉRIE LAMBOT A1 53 01:44:18 08:41 6.90
483 2610 MARLIES ENGELEN SD 142 01:44:33 08:43 6.89
484 2611 LOTTE VERSCHUREN SD 143 01:44:37 08:43 6.88
485 2609 ROXANNE GOOSSENS SD 144 01:44:38 08:43 6.88
486 2414 LUCY ASHTON A1 54 01:45:47 08:49 6.81
487 1528 AUDREY FRITSCH SD 145 01:46:03 08:50 6.79
488 1527 ARNAUD FRITSCH SH 155 01:46:04 08:50 6.79
489 2651 SYLVIE COOPMAN SD 146 01:46:21 08:52 6.77
490 2340 SANDRINE GRAAS SD 147 01:46:31 08:53 6.76
491 2341 THOMAS VAN CANEGEM SH 156 01:46:32 08:53 6.76
492 3233 TRISTAN ALBERT JH 10 01:47:25 08:57 6.70
493 3232 ERIC VANDEREYD V3 7 01:47:36 08:58 6.69
494 2186 YOUNÈS STEFFENS SH 157 01:48:05 09:00 6.66
495 2853 SARA DE CAT SD 148 01:50:11 09:11 6.53
496 2857 CARMEN VAN BUGGENHOUT SD 149 01:50:11 09:11 6.53
497 2120 ARNAUD AGTEN SH 158 01:51:03 09:15 6.48
498 2543 LINUS VANWIJCK SH 159 01:53:39 09:28 6.34
499 2155 THOMAS BOISDENGHIEN SH 160 01:53:49 09:29 6.33
500 1690 XAVIER CARRO VALDES SH 161 01:54:02 09:30 6.31
501 2194 JORRIT TEUWEN SH 162 01:54:52 09:34 6.27
502 1525 ISABELLE DECANNIERE A1 55 02:04:06 10:20 5.80
503 2183 VIRGINIE BEKAERT SD 150 02:05:30 10:28 5.74
504 2313 IVAN LEMAIRE V1 67 02:21:45 11:49 5.08
505 1725 LIEVE BAUWENS A1 56 02:22:51 11:54 5.04
506 2307 VALÉRIE BRIHAYE A2 21 02:35:36 12:58 4.63
507 2200 CYRIL DEBUYSSCHERE SH 163 02:36:10 13:01 4.61
508 3271 FRANÇOIS LOISEL SH 164 02:39:27 13:17 4.52
509 3221 ALAIN SCHAFF V2 30 03:11:40 15:58 3.76